Weather History for Teterboro, NJ

Change the Weather History Date:

Sunday, December 14, 2003

  Actual Average Record
Temperature  
Mean Temperature 32 °F -  
Max Temperature 39 °F 43 °F 60 °F (1991)
Min Temperature 24 °F 29 °F 12 °F (2005)
Degree Days  
Heating Degree Days 34    
Moisture  
Dew Point 26 °F    
Average Humidity 84    
Maximum Humidity 100    
Minimum Humidity 39    
Precipitation  
Precipitation 1.17 in - - ()
Snow  
Snow 0.00 in - - ()
Snow Depth 4.00 in    
Sea Level Pressure  
Sea Level Pressure 30.03 in    
Wind  
Wind Speed 9 mph (NE)    
Max Wind Speed 15 mph    
Max Gust Speed 22 mph    
Visibility 4 miles    
Events Fog , Rain , Snow    
Averages and records for this station are not official NWS values.
T = Trace of Precipitation, MM = Missing Value Source: NWS Daily Summary

Daily Weather History Graph

Daily Weather History Graph

Search for Another Location

Airport:

Trip Planner

Search our weather history database for the weather conditions in past years. The results will help you decide how hot, cold, wet, or windy it might be!

Date:

Astronomy

Dec. 14, 2003 Rise Set
Actual Time 7:12 AM EST 4:28 PM EST
Civil Twilight 6:41 AM EST 4:59 PM EST
Nautical Twilight 6:07 AM EST 5:34 PM EST
Astronomical Twilight 5:33 AM EST 6:07 PM EST
Moon 9:56 PM EST (12/14) 11:31 AM EST (12/14)
Length of Visible Light 10h 18m
Length of Day
9h 16m
Waning Gibbous, 71% of the Moon is Illuminated
Dec 14
Waning Gibbous
Dec 16
Last Quarter
Dec 23
New
Dec 30
First Quarter
Jan 7
Full

Hourly Weather History & Observations

Time (EST) Temp. Windchill Dew Point Humidity Pressure Visibility Wind Dir Wind Speed Gust Speed Precip Events Conditions
12:51 AM 28.0 °F 20.8 °F 9.0 °F 45% 30.44 in 10.0 mi NE 6.9 mph - N/A   Mostly Cloudy
1:51 AM 28.0 °F 19.3 °F 6.1 °F 39% 30.42 in 10.0 mi NE 9.2 mph - N/A   Mostly Cloudy
2:51 AM 27.0 °F 18.0 °F 6.1 °F 41% 30.41 in 10.0 mi NE 9.2 mph - N/A   Overcast
3:51 AM 27.0 °F 23.0 °F 8.1 °F 45% 30.43 in 10.0 mi ENE 3.5 mph - N/A   Mostly Cloudy
4:51 AM 28.0 °F 21.7 °F 10.0 °F 47% 30.40 in 10.0 mi NE 5.8 mph - N/A   Overcast
5:51 AM 28.0 °F 21.7 °F 12.9 °F 53% 30.40 in 10.0 mi ENE 5.8 mph - N/A   Overcast
6:51 AM 28.0 °F 20.0 °F 14.0 °F 56% 30.39 in 10.0 mi NE 8.1 mph - N/A   Overcast
7:51 AM 28.0 °F 19.3 °F 18.0 °F 66% 30.37 in 4.0 mi ENE 9.2 mph - 0.00 in Snow Light Snow
8:01 AM 26.6 °F 17.5 °F 17.6 °F 69% 30.37 in 2.0 mi ENE 9.2 mph - 0.00 in Snow Light Snow
8:27 AM 26.6 °F 19.1 °F 23.0 °F 86% 30.37 in 0.8 mi East 6.9 mph - 0.00 in Snow Light Snow
8:51 AM 25.0 °F 18.1 °F 23.0 °F 92% 30.36 in 0.8 mi ENE 5.8 mph - 0.01 in Snow Light Snow
9:51 AM 25.0 °F 15.5 °F 23.0 °F 92% 30.32 in 0.5 mi ENE 9.2 mph - 0.04 in Fog , Snow Snow
10:30 AM 24.8 °F 14.0 °F 24.8 °F 100% 30.28 in 0.2 mi ENE 11.5 mph 19.6 mph 0.04 in Fog , Snow Heavy Snow
10:51 AM 25.0 °F 12.6 °F 24.1 °F 96% 30.26 in 0.2 mi East 15.0 mph - 0.07 in Fog , Snow Heavy Snow
11:51 AM 26.1 °F 16.8 °F 25.0 °F 96% 30.20 in 0.2 mi ENE 9.2 mph - 0.09 in Fog , Snow Snow
12:51 PM 26.1 °F 16.8 °F 25.0 °F 96% 30.12 in 0.2 mi NE 9.2 mph - 0.06 in Fog , Snow Snow
1:51 PM 26.1 °F 14.5 °F 25.0 °F 96% 30.06 in 0.2 mi NE 13.8 mph - 0.04 in Fog , Snow Heavy Snow
2:44 PM 28.4 °F 19.7 °F 26.6 °F 93% 30.02 in 3.0 mi ENE 9.2 mph 19.6 mph 0.04 in Snow Light Snow
2:51 PM 28.0 °F 18.1 °F 26.1 °F 92% 30.01 in 3.0 mi NE 11.5 mph - 0.04 in Snow Light Snow
3:42 PM 30.2 °F 21.9 °F 28.4 °F 93% 29.95 in 2.0 mi NE 9.2 mph - 0.02 in Rain Light Freezing Rain
3:51 PM 30.0 °F 21.1 °F 30.0 °F 100% 29.95 in 2.0 mi ENE 10.4 mph - 0.03 in Rain Light Freezing Rain
4:51 PM 30.9 °F 22.2 °F 30.9 °F 100% 29.90 in 4.0 mi NNE 10.4 mph - 0.07 in Rain Light Freezing Rain
5:51 PM 36.0 °F 28.0 °F 35.1 °F 97% 29.83 in 4.0 mi ENE 11.5 mph 17.3 mph 0.08 in Rain Light Freezing Rain
6:51 PM 37.9 °F 30.5 °F 37.0 °F 97% 29.77 in 6.0 mi ENE 11.5 mph - 0.03 in Rain Light Rain
7:51 PM 39.0 °F 32.3 °F 37.9 °F 96% 29.71 in 2.0 mi ENE 10.4 mph - 0.05 in Rain Light Rain
7:58 PM 39.2 °F 31.6 °F 39.2 °F 100% 29.69 in 2.0 mi ENE 12.7 mph 21.9 mph 0.03 in Rain Light Rain
8:51 PM 39.9 °F 33.4 °F 39.0 °F 97% 29.68 in 2.0 mi ENE 10.4 mph - 0.18 in Rain Light Rain
9:51 PM 39.9 °F 32.9 °F 39.0 °F 97% 29.59 in 4.0 mi NE 11.5 mph 21.9 mph 0.12 in Rain Light Rain
10:24 PM 37.4 °F 30.3 °F 37.4 °F 100% 29.57 in 3.0 mi North 10.4 mph - 0.05 in Rain Light Rain
10:51 PM 36.0 °F 29.0 °F 36.0 °F 100% 29.54 in 2.5 mi NNE 9.2 mph - 0.09 in Rain Light Rain
11:03 PM 35.6 °F 28.0 °F 35.6 °F 100% 29.53 in 3.0 mi North 10.4 mph - 0.02 in Rain Light Rain
11:25 PM 35.6 °F 27.5 °F 35.6 °F 100% 29.53 in 4.0 mi North 11.5 mph - 0.05 in Rain Light Rain
11:36 PM 35.6 °F 27.1 °F 33.8 °F 93% 29.52 in 3.0 mi North 12.7 mph - 0.12 in Rain Light Rain
11:51 PM 34.0 °F 25.0 °F 34.0 °F 100% 29.51 in 2.0 mi NNE 12.7 mph - 0.17 in Rain Light Rain